Weather reports worldwide

Advertisment
Bolzano, Italy (16020): temperature & dewpoint: 15.01.2018 04:00:00 - 21.01.2018 04:00:00 (CET)Bolzano, Italy (16020): wind speed: 15.01.2018 04:00:00 - 21.01.2018 04:00:00 (CET)Bolzano, Italy (16020): wind direction: 15.01.2018 04:00:00 - 21.01.2018 04:00:00 (CET)Bolzano, Italy (16020): reduced air pressure: 15.01.2018 04:00:00 - 21.01.2018 04:00:00 (CET)Bolzano, Italy (16020): visibility: 15.01.2018 04:00:00 - 21.01.2018 04:00:00 (CET)Bolzano, Italy (16020): precipitation: 15.01.2018 04:00:00 - 21.01.2018 04:00:00 (CET)
Date & Time tt [°C] td [°C] ff [km/h] ff [kn] dd ppp [hPa] vv [km] rr [mm]
21.01.2018 04:00:00 - - - - - - - -
21.01.2018 03:00:00 - - - - - - - -
21.01.2018 02:00:00 - - - - - - - -
21.01.2018 01:00:00 1,6 0,8 8 4 NNE 1006,6 - 0,0
21.01.2018 00:00:00 - - - - - - - -
20.01.2018 23:00:00 3,0 -1,0 8 4 N - 10 -
20.01.2018 22:00:00 2,8 -4,2 2 1 SSE 1007,0 15 -
20.01.2018 21:00:00 2,0 -4,0 4 2 - - 10 -
20.01.2018 20:00:00 3,0 -5,0 5 3 - - 10 -
20.01.2018 19:00:00 1,9 -3,8 5 3 WNW 1008,2 15 0,0
20.01.2018 18:00:00 4,0 -5,0 2 1 - - 10 -
20.01.2018 17:00:00 4,0 -6,0 2 1 N - 10 -
20.01.2018 16:00:00 5,5 -6,0 4 2 SSE 1009,8 20 -
20.01.2018 15:00:00 6,0 -5,0 2 1 - - 10 -
20.01.2018 14:00:00 7,0 -5,0 5 3 SSW - 10 -
20.01.2018 13:00:00 6,4 -5,9 4 2 SSW 1012,5 45 0,0
20.01.2018 12:00:00 5,0 -5,0 0 0 N - 10 -
20.01.2018 11:00:00 3,0 -4,0 4 2 - - 10 -
20.01.2018 10:00:00 0,5 -3,7 2 1 SE 1016,5 45 -
20.01.2018 09:00:00 -4,0 -6,0 0 0 N - 10 -
20.01.2018 08:00:00 -4,0 -6,0 4 2 - - 10 -
20.01.2018 07:00:00 -4,3 -6,2 2 1 WNW 1016,6 10 0,0
20.01.2018 06:00:00 - - - - - - - -
20.01.2018 05:00:00 - - - - - - - -
20.01.2018 04:00:00 -1,7 -5,3 5 3 SE 1015,5 - -
20.01.2018 03:00:00 - - - - - - - -
20.01.2018 02:00:00 - - - - - - - -
20.01.2018 01:00:00 -1,0 -5,3 2 1 SW 1015,3 - 0,0
20.01.2018 00:00:00 - - - - - - - -
19.01.2018 23:00:00 0,0 -4,0 5 3 ENE - 10 -
19.01.2018 22:00:00 -0,9 -4,8 2 1 W 1014,2 15 -
19.01.2018 21:00:00 0,0 -4,0 4 2 S - 10 -
19.01.2018 20:00:00 0,0 -4,0 0 0 N - 10 -
19.01.2018 19:00:00 0,9 -3,3 2 1 NNE 1012,2 15 0,0
19.01.2018 18:00:00 1,0 -2,0 2 1 - - 10 -
19.01.2018 17:00:00 3,0 -2,0 4 2 - - 10 -
19.01.2018 16:00:00 5,5 -2,0 4 2 SSE 1010,2 50 -
19.01.2018 15:00:00 8,0 -2,0 5 3 - - 10 -
19.01.2018 14:00:00 7,0 -2,0 0 0 N - 10 -
19.01.2018 13:00:00 5,0 -2,9 4 2 WNW 1010,8 10 0,0
19.01.2018 12:00:00 4,0 -2,0 0 0 N - 10 -
19.01.2018 11:00:00 4,0 -3,0 0 0 N - 10 -
19.01.2018 10:00:00 1,0 -1,8 0 0 N 1011,0 10 -
19.01.2018 09:00:00 -1,0 -3,0 0 0 N - 10 -
19.01.2018 08:00:00 -3,0 -4,0 0 0 N - 10 -
19.01.2018 07:00:00 -2,9 -4,4 2 1 - 1010,7 10 0,0
19.01.2018 06:00:00 - - - - - - - -
19.01.2018 05:00:00 - - - - - - - -
19.01.2018 04:00:00 -3,0 -4,1 2 1 ENE 1011,3 - -
19.01.2018 03:00:00 - - - - - - - -
19.01.2018 02:00:00 - - - - - - - -
19.01.2018 01:00:00 -2,9 -4,8 4 2 NNE 1012,2 - 0,0
19.01.2018 00:00:00 - - - - - - - -
18.01.2018 23:00:00 -2,0 -4,0 4 2 - - 10 -
18.01.2018 22:00:00 -2,1 -4,5 5 3 - 1013,3 10 -
18.01.2018 21:00:00 -1,0 -4,0 2 1 - - 10 -
18.01.2018 20:00:00 -2,0 -4,0 2 1 - - 10 -
18.01.2018 19:00:00 0,6 -3,1 2 1 - 1013,2 10 0,0
18.01.2018 18:00:00 1,0 -3,0 2 1 - - 10 -
18.01.2018 17:00:00 4,0 -2,0 0 0 N - 10 -
18.01.2018 16:00:00 4,8 -3,3 4 2 - 1012,6 10 -
18.01.2018 15:00:00 8,0 -4,0 4 2 - - 10 -
18.01.2018 14:00:00 8,0 -5,0 2 1 - - 10 -
18.01.2018 13:00:00 7,0 -4,7 2 1 - 1014,2 10 0,0
18.01.2018 12:00:00 4,0 -4,0 2 1 - - 10 -
18.01.2018 11:00:00 2,0 -3,0 5 3 - - 10 -
18.01.2018 10:00:00 2,7 -3,0 2 1 SSE 1017,2 15 -
18.01.2018 09:00:00 -1,0 -3,0 5 3 E - 10 -
18.01.2018 08:00:00 -2,0 -5,0 5 3 - - 10 -
18.01.2018 07:00:00 -1,2 -4,5 5 3 - 1016,9 10 0,0
18.01.2018 06:00:00 - - - - - - - -
18.01.2018 05:00:00 - - - - - - - -
18.01.2018 04:00:00 0,0 -4,0 9 5 N 1016,7 - -
18.01.2018 03:00:00 - - - - - - - -
18.01.2018 02:00:00 - - - - - - - -
18.01.2018 01:00:00 1,0 -3,4 2 1 NE 1016,0 - 0,0
18.01.2018 00:00:00 - - - - - - - -
17.01.2018 23:00:00 1,0 -2,0 0 0 N - 10 -
17.01.2018 22:00:00 1,2 -3,4 5 3 SE 1014,0 10 -
17.01.2018 21:00:00 2,0 -3,0 0 0 N - 10 -
17.01.2018 20:00:00 3,0 -4,0 0 0 N - 10 -
17.01.2018 19:00:00 2,9 -4,6 5 3 W 1010,4 10 0,0
17.01.2018 18:00:00 4,0 -4,0 5 3 SSE - 10 -
17.01.2018 17:00:00 5,0 -4,0 5 3 N - 10 -
17.01.2018 16:00:00 4,9 -3,7 5 3 - 1007,2 10 -
17.01.2018 15:00:00 6,0 -5,0 15 8 - - 10 -
17.01.2018 14:00:00 6,0 -5,0 22 12 NNW - 10 -
17.01.2018 13:00:00 6,7 0,2 8 4 - 1003,0 8 0,0
17.01.2018 12:00:00 4,0 1,0 8 4 - - 7 -
17.01.2018 11:00:00 3,0 1,0 5 3 - - 9 -
17.01.2018 10:00:00 2,6 0,0 8 4 - 1002,9 9 -
17.01.2018 09:00:00 1,0 -1,0 2 1 SE - 8 -
17.01.2018 08:00:00 0,0 0,0 4 2 WNW - 6 -
17.01.2018 07:00:00 -1,7 -1,7 4 2 - 1000,3 8 0,0
17.01.2018 06:00:00 - - - - - - - -
17.01.2018 05:00:00 - - - - - - - -
17.01.2018 04:00:00 -0,3 -0,7 5 3 NNW 1000,9 - -
17.01.2018 03:00:00 - - - - - - - -
17.01.2018 02:00:00 - - - - - - - -
17.01.2018 01:00:00 -1,2 -1,7 4 2 WNW 1003,2 - 0,0
17.01.2018 00:00:00 - - - - - - - -
16.01.2018 23:00:00 1,0 0,0 4 2 - - 10 -
16.01.2018 22:00:00 0,7 -0,9 4 2 - 1005,7 10 -
16.01.2018 21:00:00 2,0 0,0 4 2 - - 10 -
16.01.2018 20:00:00 2,0 0,0 2 1 - - 10 -
16.01.2018 19:00:00 1,5 -1,5 4 2 - 1006,3 10 0,0
16.01.2018 18:00:00 3,0 -1,0 2 1 - - 10 -
16.01.2018 17:00:00 3,0 -2,0 4 2 - - 10 -
16.01.2018 16:00:00 2,5 -2,1 4 2 - 1007,2 10 -
16.01.2018 15:00:00 3,0 -2,0 0 0 N - 10 -
16.01.2018 14:00:00 3,0 -2,0 0 0 N - 10 -
16.01.2018 13:00:00 2,5 -1,5 2 1 - 1009,9 10 0,0
16.01.2018 12:00:00 2,0 -1,0 2 1 - - 10 -
16.01.2018 11:00:00 2,0 -1,0 0 0 N - 10 -
16.01.2018 10:00:00 1,2 -1,2 0 0 N 1012,2 10 -
16.01.2018 09:00:00 1,0 -1,0 0 0 N - 10 -
16.01.2018 08:00:00 1,0 -1,0 2 1 - - 9 -
16.01.2018 07:00:00 0,7 -1,2 0 0 N 1013,1 10 0,0
16.01.2018 06:00:00 - - - - - - - -
16.01.2018 05:00:00 - - - - - - - -
16.01.2018 04:00:00 1,3 -1,6 2 1 N 1015,1 - -
16.01.2018 03:00:00 - - - - - - - -
16.01.2018 02:00:00 - - - - - - - -
16.01.2018 01:00:00 1,9 -1,7 4 2 N 1017,5 - 0,0
16.01.2018 00:00:00 - - - - - - - -
15.01.2018 23:00:00 1,0 -2,0 4 2 - - 10 -
15.01.2018 22:00:00 1,5 -2,1 4 2 - 1019,5 10 -
15.01.2018 21:00:00 1,0 -2,0 0 0 N - 10 -
15.01.2018 20:00:00 1,0 -3,0 4 2 - - 10 -
15.01.2018 19:00:00 1,0 -2,6 2 1 - 1019,9 10 0,0
15.01.2018 18:00:00 1,0 -3,0 0 0 N - 10 -
15.01.2018 17:00:00 4,0 -4,0 4 2 - - 10 -
15.01.2018 16:00:00 4,0 -3,9 5 3 - 1020,9 10 -
15.01.2018 15:00:00 6,0 -3,0 8 4 S - 10 -
15.01.2018 14:00:00 6,0 -4,0 8 4 S - 10 -
15.01.2018 13:00:00 5,5 -3,3 4 2 - 1023,0 10 0,0
15.01.2018 12:00:00 4,0 -4,0 4 2 - - 10 -
15.01.2018 11:00:00 1,0 -3,0 4 2 N - 10 -
15.01.2018 10:00:00 0,3 -4,1 4 2 - 1026,2 10 -
15.01.2018 09:00:00 -2,0 -3,0 5 3 NNW - 10 -
15.01.2018 08:00:00 -2,0 -3,0 0 0 N - 10 -
15.01.2018 07:00:00 -0,5 -2,6 0 0 N 1025,3 10 0,0
15.01.2018 06:00:00 - - - - - - - -
15.01.2018 05:00:00 - - - - - - - -
15.01.2018 04:00:00 -0,5 -2,6 4 2 N 1025,2 - -

tt = temperature
td = dewpoint
ff = wind speed
dd = wind direction
ppp = reduced air pressure
vv = visibility
rr = precipitation

Next stations